www.pogodaiklimat.ru

Погода и климат >> Архив погоды >> Иран >> Tabas


ПОГОДА в Tabas

  • Прогноз погоды в Tabas
  • Монитор погоды в Tabas
  • Климат города

АРХИВ ПОГОДЫ в Tabas

Время (UTC), дата Ветер
(напр.,м/с)
 
Видим.   Явления Облачность Т
(С)
Тd
(С)
f
(%)
Тe
(С)
Тes
(С)
Комфортность P
(гПа)
Po
(гПа)
Тmin
(С)
Tmax
(С)
R
(мм)
R24
(мм)
S
(см)
03 11.10 штиль 0 20 км ясно +16.4 -9.5 16 +16 +17 1016.9 937.0 +15.0
06 11.10 штиль 0 15 км ясно +24.9 -10.7 9 +22 +33 комфорт 1017.0 937.7
09 11.10 штиль 0 15 км ясно +29.7 -10.2 7 +26 +41 жарко 1014.3 935.7
12 11.10 СЗ 3 15 км ясно +30.8 -6.4 9 +27 +29 жарко 1012.9 934.2
15 11.10 СВ 3 15 км ясно +26.4 -4.8 12 +24 +24 комфорт 1014.5 935.0 +31.4
18 11.10 штиль 0 15 км ясно +24.3 -4.7 14 +22 +22 комфорт 1014.3 935.6
21 11.10 штиль 0 15 км ясно +20.2 -2.0 22 +20 +20 1013.9 935.4
00 12.10 штиль 0 15 км ясно +17.9 -3.2 24 +18 +18 1014.3 935.6
03 12.10 штиль 0 15 км ясно +18.4 -3.0 23 +18 +19 1016.4 937.0 +16.6
06 12.10 Ю 2 10 км ясно +24.1 -2.4 17 +22 +30 комфорт 1016.1 937.2
09 12.10 ЮЗ 2 10 км 4/0
[Ci fib]
+30.2 -3.9 11 +27 +37 жарко 1014.3 935.8
12 12.10 штиль 0 15 км ясно +31.9 -1.8 11 +28 +32 жарко 1013.1 934.6
15 12.10 СВ 2 10 км 1/1 1200 м
[Sc]
+27.0 -1.3 16 +25 +25 комфорт 1013.9 934.8 +32.5
18 12.10 СВ 3 12 км ясно +24.4 -4.4 14 +22 +22 комфорт 1014.8 936.0
21 12.10 ЮЗ 2 12 км ясно +23.6 -1.8 18 +22 +22 комфорт 1014.5 935.9
00 13.10 ЮВ 2 12 км ясно +19.5 -2.7 22 +20 +20 1015.1 936.7
03 13.10 С 5 12 км 3/3 1200 м
[Sc]
+21.7 +3.9 31 +22 +22 комфорт 1018.5 939.6 +18.7
06 13.10 С 6 10 км 6/4 1200 м
[Sc As trans]
+24.3 +5.7 30 +24 +26 комфорт 1019.5 940.5
09 13.10 С 4 10 км 4/0
[Cs]
+27.1 +6.2 26 +26 +33 жарко 1017.9 939.3
12 13.10 С 7 10 км 3/0
[Cs]
+27.0 +4.2 23 +26 +26 жарко 1017.5 938.4
15 13.10 С 5 10 км 3/0
[Cs]
+23.9 +2.5 25 +23 +23 комфорт 1018.6 939.2 +27.4
18 13.10 СЗ 6 10 км 8/4 1200 м
[Sc As op]
+21.9 -0.4 23 +21 +21 комфорт 1019.8 940.4
21 13.10 штиль 0 10 км 5/0
[As trans]
+18.5 -2.4 24 +18 +18 1019.5 940.0
00 14.10 штиль 0 10 км 5/0
[Cs]
+16.9 -2.5 26 +17 +17 1019.5 939.8
03 14.10 штиль 0 10 км 3/0
[Ci sp]
+17.1 -1.0 29 +17 +17 1020.1 940.0 +16.0
06 14.10 штиль 0 15 км 3/1 1350 м
[Sc Ac As]
+23.7 -0.9 20 +22 +30 комфорт 1019.8 940.3
09 14.10 СЗ 5 15 км 3/3 1350 м
[Sc]
+25.1 +4.7 27 +25 +29 комфорт 1018.0 938.5
12 14.10 С 4 15 км 1/1 1350 м
[Sc]
+26.9 +4.0 23 +26 +27 жарко 1016.1 936.7
15 14.10 С 2 15 км ясно +23.5 +2.8 26 +23 +23 комфорт 1016.3 936.5 +27.4
18 14.10 С 2 15 км ясно +21.8 +1.6 26 +21 +21 комфорт 1016.3 937.1
21 14.10 СВ 3 15 км ясно +20.1 +1.8 30 +21 +21 комфорт 1015.7 936.9
00 15.10 штиль 0 15 км ясно +17.2 +2.9 38 +17 +17 1015.6 936.3
03 15.10 штиль 0 15 км 4/4 1350 м
[Sc]
+17.3 +3.6 40 +17 +17 1016.8 937.0 +15.4
06 15.10 СЗ 3 6000 м слабый ливневой дождь, в посл. час гроза 9/8 750 м
[Cb calv Ac trans]
+17.4 +10.1 62 +17 +18 1019.5 939.4 1
09 15.10 С 2 10 км 8/4 1050 м
[Sc diur, vesp Ac As]
+24.4 +7.5 34 +25 +28 комфорт 1016.1 936.9
12 15.10 СЗ 2 15 км 5/3 1200 м
[Sc Ac trans]
+25.5 +6.0 29 +25 +27 комфорт 1015.5 936.1
15 15.10 С 2 15 км 8/0
[Ac trans Cs]
+23.2 +6.7 35 +24 +24 комфорт 1016.5 936.7 +26.7
18 15.10 С 2 15 км 4/0
[Ac trans]
+20.2 +3.3 33 +21 +21 комфорт 1017.7 937.4
21 15.10 СЗ 2 15 км 3/0
[Ac trans]
+18.7 +2.3 33 +19 +19 1016.7 937.2
00 16.10 С 2 15 км ясно +18.8 +1.5 31 +20 +20 1016.9 937.5
03 16.10 В 2 15 км 4/3 1200 м
[Sc Ci fib]
+17.3 +1.8 35 +18 +18 1019.3 939.2 +16.8
06 16.10 С 3 30 км 3/3 900 м
[Sc]
+24.3 +0.4 21 +23 +27 комфорт 1019.9 940.3
09 16.10 СЗ 4 30 км 3/1 900 м
[Sc Ac trans]
+25.4 +0.2 19 +24 +29 комфорт 1019.1 939.5
12 16.10 С 6 30 км 1/1 900 м
[Cu hum]
+26.1 +0.2 18 +24 +25 комфорт 1017.9 938.5
15 16.10 СЗ 4 10 км ясно +22.0 +0.9 25 +22 +22 комфорт 1019.6 939.3 +26.4
18 16.10 СВ 3 10 км ясно +20.6 +0.6 26 +21 +21 комфорт 1019.3 939.8
21 16.10 штиль 0 10 км ясно +18.0 +0.4 30 +18 +18 1018.6 939.6
00 17.10 СВ 2 10 км ясно +16.6 +0.3 33 +17 +17 1018.8 939.0
03 17.10 штиль 0 15 км 1/1 600 м
[Cu hum]
+15.2 +0.2 36 +15 +15 1021.0 940.3 +14.1
06 17.10 ЮЗ 2 15 км 4/3 1050 м
[Sc Ac trans]
+21.4 +1.1 26 +21 +26 комфорт 1021.4 941.3
09 17.10 СЗ 5 15 км 5/4 1200 м
[Sc Ac trans]
+24.9 +2.1 23 +24 +27 комфорт 1019.1 939.3
12 17.10 С 4 15 км 3/0
[Ac trans]
+25.2 +1.6 21 +24 +25 комфорт 1017.6 937.8
15 17.10 С 4 15 км ясно +21.8 +0.9 25 +21 +21 комфорт 1018.3 937.8 +25.7
18 17.10 С 3 15 км ясно +19.3 0.0 27 +20 +20 1018.2 938.2
21 17.10 СВ 2 15 км ясно +16.8 -0.4 31 +17 +17 937.6
00 18.10 штиль 0 15 км ясно +15.3 -0.6 34 +15 +15 1017.5 937.5

 

Местоположение метеостанции Tabas (Иран): широта 33.60 долгота 56.92 высота над уровнем моря 711 м.

В архиве по умолчанию представлена погода в Tabas за последнюю неделю. Архивные данные за месяц целиком и за предыдущие месяцы, начиная с января 2011 года, Вы можете получить, выбрав интересующий диапазон дат из раскрывающегося списка и нажав кнопку "Ввод!".


*Определитесь, кто Вы:
робот инопланетянин человек

Внимание! Время в таблицах - всемирное. Для получения местного времени необходимо прибавить поправку, которая в Tabas равна 3.5 ч.

Смотрите также архив погоды в соседних городах и на ближайших метеорологических станциях:

Погода в Ferdous (Иран) (125 км)
Погода в Khor (Иран) (171 км)
Погода в Birjand (Иран) (227 км)
Погода в Kashmar (Иран) (228 км)
Погода в Torbat-Heydarieh (Иран) (281 км)
Погода в Sabzevar (Иран) (299 км)
Погода в Yazd (Иран) (311 км)
Погода в Shahrud (Иран) (361 км)
Погода в Nehbandan (Иран) (371 км)
Погода в Kerman (Иран) (373 км)

Пояснения к столбцам:

Ветер - указаны скорость ветра в м/с - средняя за 10 мин, порывы в срок и между сроками (в фигурных скобках) и направление, откуда дует ветер: С - северный, СВ - северо-восточный, В - восточный, ЮВ - юго-восточный, Ю - южный, ЮЗ - юго-западный, З - западный, СЗ - северо-западный.
Видимость - горизонтальная дальность видимости в метрах или километрах. При видимости от 1 до 10 км при отсутствии осадков обычно наблюдается дымка, при ухудшении видимости до 1 км и менее - туман. В сухую погоду видимость может ухудшаться дымом, пылью или мглою.
Явления - указаны атмосферные явления, наблюдавшиеся в срок или в последний час перед сроком; фигурными скобками обозначены явления, наблюдавшиеся между сроками (за 1-3 часа до срока); квадратными скобками обозначены град или гололедные отложения с указанием их диаметра в мм.
Облачность - указаны через наклонную черту общая и нижняя облачность в баллах и высота нижней границы облаков в метрах; квадратными скобками обозначены формы облаков: Ci - перистые, Cs - перисто-слоистые, Cc - перисто-кучевые, Ac - высококучевые, As - высокослоистые, Sc - слоисто-кучевые, Ns - слоисто-дождевые, Cu - кучевые, Cb - кучево-дождевые. Подробнее классификацию облаков см. в Атласе облаков (PDF).
T - Температура воздуха - температура, измеренная на высоте 2 м над землей.
Td - Температура точки росы - температура, при понижении до которой содержащийся в воздухе водяной пар достигнет насыщения.
f - Относительная влажность воздуха - влажноcть воздуха, измеренная на высоте 2 м над землей.
Te - Эффективная температура - температура, которую ощущает одетый по сезону человек в тени. Характеристика душности погоды. При расчете учитывается влияние влажности воздуха и скорости ветра на теплоощущения человека.
Tes - Эффективная температура на солнце - температура, которую ощущает человек, с поправкой на солнечный нагрев. Характеристика знойности погоды. Зависит от высоты солнца над горизонтом, облачности и скорости ветра. Ночью, в пасмурную погоду, а также при ветре 12 м/с и более поправка равна нулю.
P - Атмосферное давление - приведенное к уровню моря атмосферное давление.
Po - Атмосферное давление - измеренное на уровне метеостанции атмосферное давление.
Tmin - Минимальная температура - минимум температуры воздуха на высоте 2 м над землей.
Tmax - Максимальная температура - максимум температуры воздуха на высоте 2 м над землей.
R - Количество осадков - Количество выпавших осадков за период времени, мм. При наведении курсора мыши на число - период времени, за который выпало указанное количество осадков.
R24 - Количество осадков - Количество выпавших осадков за 24 часа, мм.
S - Снежный покров - Высота снежного покрова, см. При наведении курсора мыши на число - состояние снежного покрова и степень покрытия местности в баллах.